Data No.,UTC Date,UTC Time,Latitude,Longitude,Course(deg),Temp(degC),Sal(psu)
749,2008/11/5,20:10:00,30-54.6000N,137-48.6800E,173,25.013,34.2873
787,2008/11/5,20:48:00,30-44.9800N,137-50.1300E,170,24.722,34.3012
855,2008/11/5,21:56:00,30-28.1400N,137-53.2800E,170,24.764,34.3227
856,2008/11/5,21:57:00,30-27.8800N,137-53.3200E,170,24.763,34.3207
857,2008/11/5,21:58:00,30-27.6400N,137-53.3700E,170,24.755,34.3307
858,2008/11/5,21:59:00,30-27.3900N,137-53.4100E,170,24.751,34.3329
859,2008/11/5,22:00:00,30-27.1400N,137-53.4700E,169,24.747,34.3377
860,2008/11/5,22:01:00,30-26.9000N,137-53.5100E,170,24.753,34.3397
861,2008/11/5,22:02:00,30-26.6500N,137-53.5600E,170,24.745,34.3446
862,2008/11/5,22:03:00,30-26.4000N,137-53.6100E,170,24.74,34.3454
863,2008/11/5,22:04:00,30-26.1400N,137-53.6600E,170,24.738,34.3456
864,2008/11/5,22:05:00,30-25.8900N,137-53.7100E,170,24.736,34.348
865,2008/11/5,22:06:00,30-25.6400N,137-53.7600E,170,24.738,34.3489
866,2008/11/5,22:07:00,30-25.3900N,137-53.8100E,170,24.732,34.3507
867,2008/11/5,22:08:00,30-25.1500N,137-53.8600E,170,24.725,34.3481
868,2008/11/5,22:09:00,30-24.9000N,137-53.9100E,170,24.73,34.343
869,2008/11/5,22:10:00,30-24.6500N,137-53.9600E,170,24.735,34.3438
870,2008/11/5,22:11:00,30-24.4000N,137-54.0100E,170,24.774,34.3459
871,2008/11/5,22:12:00,30-24.1500N,137-54.0600E,170,24.815,34.3515
872,2008/11/5,22:13:00,30-23.9100N,137-54.1100E,170,24.819,34.3731
874,2008/11/5,22:15:00,30-23.4200N,137-54.2100E,169,24.836,34.3782
875,2008/11/5,22:16:00,30-23.1700N,137-54.2700E,169,24.854,34.3816
876,2008/11/5,22:17:00,30-22.9300N,137-54.3200E,169,24.851,34.3887
877,2008/11/5,22:18:00,30-22.6800N,137-54.3700E,169,24.839,34.3936
878,2008/11/5,22:19:00,30-22.4300N,137-54.4300E,169,24.823,34.3902
879,2008/11/5,22:20:00,30-22.1900N,137-54.4900E,168,24.818,34.3717
880,2008/11/5,22:21:00,30-21.9500N,137-54.5400E,168,24.817,34.3697
881,2008/11/5,22:22:00,30-21.7000N,137-54.6000E,168,24.835,34.3816
882,2008/11/5,22:23:00,30-21.4500N,137-54.6500E,169,24.811,34.3921
883,2008/11/5,22:24:00,30-21.2100N,137-54.7100E,169,24.784,34.381
884,2008/11/5,22:25:00,30-20.9600N,137-54.7600E,169,24.783,34.3616
885,2008/11/5,22:26:00,30-20.7200N,137-54.8100E,169,24.787,34.3541
886,2008/11/5,22:27:00,30-20.4700N,137-54.8600E,169,24.803,34.3484
887,2008/11/5,22:28:00,30-20.2300N,137-54.9200E,169,24.825,34.35
888,2008/11/5,22:29:00,30-19.9900N,137-54.9700E,169,24.777,34.3572
889,2008/11/5,22:30:00,30-19.7400N,137-55.0200E,170,24.755,34.3521
890,2008/11/5,22:31:00,30-19.4900N,137-55.0700E,169,24.792,34.3311
891,2008/11/5,22:32:00,30-19.2300N,137-55.1200E,169,24.792,34.3426
892,2008/11/5,22:33:00,30-18.9900N,137-55.1800E,169,24.719,34.3372
893,2008/11/5,22:34:00,30-18.7400N,137-55.2300E,169,24.678,34.3416
895,2008/11/5,22:36:00,30-18.2500N,137-55.3400E,168,24.741,34.2994
896,2008/11/5,22:37:00,30-18.0100N,137-55.4000E,168,24.723,34.314
897,2008/11/5,22:38:00,30-17.7600N,137-55.4600E,168,24.74,34.3297
898,2008/11/5,22:39:00,30-17.5200N,137-55.5200E,168,24.754,34.3215
899,2008/11/5,22:40:00,30-17.2700N,137-55.5700E,168,24.786,34.3283
900,2008/11/5,22:41:00,30-17.0300N,137-55.6300E,168,24.804,34.3335
901,2008/11/5,22:42:00,30-16.7900N,137-55.6900E,168,24.786,34.3499
902,2008/11/5,22:43:00,30-16.5400N,137-55.7500E,168,24.77,34.3446
903,2008/11/5,22:44:00,30-16.3000N,137-55.8100E,168,24.787,34.3325
904,2008/11/5,22:45:00,30-16.0600N,137-55.8600E,168,24.787,34.3309
905,2008/11/5,22:46:00,30-15.8200N,137-55.9200E,168,24.782,34.3288
906,2008/11/5,22:47:00,30-15.5700N,137-55.9800E,168,24.767,34.3359
907,2008/11/5,22:48:00,30-15.3300N,137-56.0300E,169,24.78,34.3292
908,2008/11/5,22:49:00,30-15.0800N,137-56.0900E,168,24.812,34.3336
909,2008/11/5,22:50:00,30-14.8400N,137-56.1500E,168,24.834,34.3443
910,2008/11/5,22:51:00,30-14.6000N,137-56.2000E,168,24.864,34.3567
911,2008/11/5,22:52:00,30-14.3500N,137-56.2600E,168,24.892,34.3414
912,2008/11/5,22:53:00,30-14.1100N,137-56.3200E,168,24.905,34.3831
913,2008/11/5,22:54:00,30-13.8600N,137-56.3800E,168,24.908,34.3918
914,2008/11/5,22:55:00,30-13.6200N,137-56.4300E,168,24.908,34.3954
915,2008/11/5,22:56:00,30-13.3800N,137-56.4900E,168,24.894,34.3979
916,2008/11/5,22:57:00,30-13.1300N,137-56.5500E,168,24.888,34.3958
917,2008/11/5,22:58:00,30-12.8900N,137-56.6100E,168,24.898,34.3865
918,2008/11/5,22:59:00,30-12.6300N,137-56.6700E,168,24.906,34.3925
919,2008/11/5,23:00:00,30-12.3800N,137-56.7300E,169,24.904,34.3965
920,2008/11/5,23:01:00,30-12.1400N,137-56.7800E,169,24.895,34.3996
921,2008/11/5,23:02:00,30-11.8900N,137-56.8400E,168,24.891,34.3971
922,2008/11/5,23:03:00,30-11.6500N,137-56.9000E,168,24.875,34.3958
923,2008/11/5,23:04:00,30-11.4100N,137-56.9500E,168,24.876,34.3902
924,2008/11/5,23:05:00,30-11.1700N,137-57.0100E,168,24.886,34.3665
925,2008/11/5,23:06:00,30-10.9200N,137-57.0700E,168,24.906,34.3645
926,2008/11/5,23:07:00,30-10.6700N,137-57.1300E,168,24.913,34.3978
927,2008/11/5,23:08:00,30-10.4400N,137-57.1900E,168,24.883,34.407
928,2008/11/5,23:09:00,30-10.1900N,137-57.2400E,168,24.859,34.4018
929,2008/11/5,23:10:00,30-09.9400N,137-57.3000E,168,24.83,34.3933
930,2008/11/5,23:11:00,30-09.7000N,137-57.3600E,168,24.794,34.3833
931,2008/11/5,23:12:00,30-09.4600N,137-57.4100E,168,24.777,34.3748
932,2008/11/5,23:13:00,30-09.2200N,137-57.4700E,168,24.817,34.3677
933,2008/11/5,23:14:00,30-08.9700N,137-57.5300E,167,24.834,34.3796
934,2008/11/5,23:15:00,30-08.7300N,137-57.5900E,168,24.828,34.3892
935,2008/11/5,23:16:00,30-08.4800N,137-57.6500E,168,24.829,34.3919
936,2008/11/5,23:17:00,30-08.2400N,137-57.7000E,169,24.854,34.389
937,2008/11/5,23:18:00,30-08.0000N,137-57.7500E,170,24.873,34.3939
938,2008/11/5,23:19:00,30-07.7500N,137-57.8000E,170,24.865,34.3996
939,2008/11/5,23:20:00,30-07.5100N,137-57.8400E,170,24.85,34.4014
940,2008/11/5,23:21:00,30-07.2600N,137-57.8900E,170,24.843,34.4005
941,2008/11/5,23:22:00,30-07.0200N,137-57.9400E,170,24.842,34.3962
942,2008/11/5,23:23:00,30-06.7800N,137-57.9900E,169,24.844,34.3932
943,2008/11/5,23:24:00,30-06.5300N,137-58.0400E,169,24.849,34.3957
944,2008/11/5,23:25:00,30-06.2700N,137-58.1000E,170,24.852,34.3945
945,2008/11/5,23:26:00,30-06.0200N,137-58.1500E,170,24.853,34.3984
946,2008/11/5,23:27:00,30-05.7700N,137-58.2000E,170,24.848,34.3966
947,2008/11/5,23:28:00,30-05.5200N,137-58.2500E,170,24.844,34.3928
948,2008/11/5,23:29:00,30-05.2800N,137-58.2900E,170,24.844,34.3952
949,2008/11/5,23:30:00,30-05.0400N,137-58.3400E,170,24.843,34.3973
950,2008/11/5,23:31:00,30-04.7900N,137-58.3900E,170,24.845,34.3971
951,2008/11/5,23:32:00,30-04.5500N,137-58.4400E,169,24.841,34.3966
952,2008/11/5,23:33:00,30-04.3100N,137-58.4900E,169,24.826,34.3974
953,2008/11/5,23:34:00,30-04.0600N,137-58.5400E,169,24.796,34.3655
954,2008/11/5,23:35:00,30-03.8200N,137-58.5900E,169,24.78,34.3873
955,2008/11/5,23:36:00,30-03.5700N,137-58.6400E,170,24.779,34.3799
956,2008/11/5,23:37:00,30-03.3300N,137-58.6800E,169,24.77,34.3779
957,2008/11/5,23:38:00,30-03.0900N,137-58.7300E,170,24.774,34.3728
958,2008/11/5,23:39:00,30-02.8500N,137-58.7800E,169,24.786,34.3718
959,2008/11/5,23:40:00,30-02.6100N,137-58.8300E,170,24.819,34.3753
960,2008/11/5,23:41:00,30-02.3600N,137-58.8800E,170,24.833,34.3823
961,2008/11/5,23:42:00,30-02.1200N,137-58.9300E,170,24.832,34.3899
962,2008/11/5,23:43:00,30-01.8700N,137-58.9800E,169,24.836,34.3921
963,2008/11/5,23:44:00,30-01.6300N,137-59.0300E,169,24.839,34.3923
964,2008/11/5,23:45:00,30-01.3900N,137-59.0800E,169,24.842,34.3913
965,2008/11/5,23:46:00,30-01.1500N,137-59.1300E,169,24.843,34.3903
966,2008/11/5,23:47:00,30-00.9100N,137-59.1800E,169,24.834,34.3881
967,2008/11/5,23:48:00,30-00.6600N,137-59.2300E,169,24.819,34.3869
968,2008/11/5,23:49:00,30-00.4200N,137-59.2800E,169,24.804,34.3796
969,2008/11/5,23:50:00,30-00.1800N,137-59.3300E,169,24.799,34.3713
970,2008/11/5,23:51:00,29-59.9400N,137-59.3800E,169,24.79,34.3662
971,2008/11/5,23:52:00,29-59.6700N,137-59.4400E,170,24.783,34.3551
972,2008/11/5,23:53:00,29-59.4300N,137-59.4800E,170,24.78,34.3562
973,2008/11/5,23:54:00,29-59.1900N,137-59.5300E,170,24.761,34.3486
974,2008/11/5,23:55:00,29-58.9500N,137-59.5800E,170,24.784,34.3443
975,2008/11/5,23:56:00,29-58.7100N,137-59.6300E,169,24.774,34.3374
976,2008/11/5,23:57:00,29-58.4700N,137-59.6700E,170,24.735,34.3398
977,2008/11/5,23:58:00,29-58.2300N,137-59.7200E,170,24.717,34.3286
978,2008/11/5,23:59:00,29-57.9800N,137-59.7700E,170,24.712,34.3185
979,2008/11/6,0:00:00,29-57.7600N,137-59.8100E,170,24.729,34.3101
980,2008/11/6,0:01:00,29-57.5400N,137-59.8600E,170,24.745,34.3103
981,2008/11/6,0:02:00,29-57.3000N,137-59.9000E,169,24.743,34.3187
982,2008/11/6,0:03:00,29-57.0500N,137-59.9500E,169,24.713,34.3294
983,2008/11/6,0:04:00,29-56.8100N,138-00.0100E,169,24.717,34.3309
984,2008/11/6,0:05:00,29-56.5700N,138-00.0600E,169,24.733,34.3277
985,2008/11/6,0:06:00,29-56.3100N,138-00.1200E,169,24.741,34.3321
986,2008/11/6,0:07:00,29-56.0700N,138-00.1700E,169,24.754,34.3304
987,2008/11/6,0:08:00,29-55.8300N,138-00.2200E,168,24.751,34.335
988,2008/11/6,0:09:00,29-55.5800N,138-00.2700E,169,24.742,34.3361
989,2008/11/6,0:10:00,29-55.3400N,138-00.3200E,169,24.759,34.3316
990,2008/11/6,0:11:00,29-55.1000N,138-00.3700E,170,24.798,34.3324
991,2008/11/6,0:12:00,29-54.8600N,138-00.4200E,169,24.826,34.3416
992,2008/11/6,0:13:00,29-54.6200N,138-00.4700E,170,24.79,34.3635
993,2008/11/6,0:14:00,29-54.3800N,138-00.5200E,170,24.785,34.3675
994,2008/11/6,0:15:00,29-54.1300N,138-00.5700E,169,24.804,34.3619
995,2008/11/6,0:16:00,29-53.8900N,138-00.6200E,169,24.797,34.3649
996,2008/11/6,0:17:00,29-53.6500N,138-00.6700E,169,24.773,34.3693
997,2008/11/6,0:18:00,29-53.4100N,138-00.7200E,170,24.77,34.3603
998,2008/11/6,0:19:00,29-53.1700N,138-00.7700E,169,24.782,34.3494
999,2008/11/6,0:20:00,29-52.9300N,138-00.8200E,170,24.794,34.3485
1000,2008/11/6,0:21:00,29-52.6900N,138-00.8700E,170,24.801,34.3517
1001,2008/11/6,0:22:00,29-52.4500N,138-00.9100E,170,24.798,34.347
1002,2008/11/6,0:23:00,29-52.2000N,138-00.9600E,170,24.813,34.329
1003,2008/11/6,0:24:00,29-51.9700N,138-01.0100E,170,24.833,34.2917
1004,2008/11/6,0:25:00,29-51.7300N,138-01.0600E,170,24.845,34.2768
1005,2008/11/6,0:26:00,29-51.4900N,138-01.1000E,169,24.85,34.2702
1006,2008/11/6,0:27:00,29-51.2600N,138-01.1500E,170,24.851,34.2675
1007,2008/11/6,0:28:00,29-51.0200N,138-01.2000E,170,24.852,34.2676
1008,2008/11/6,0:29:00,29-50.7900N,138-01.2400E,169,24.839,34.2602
1009,2008/11/6,0:30:00,29-50.5500N,138-01.2900E,170,24.828,34.2682
1010,2008/11/6,0:31:00,29-50.3100N,138-01.3400E,170,24.812,34.2672
1011,2008/11/6,0:32:00,29-50.0700N,138-01.3900E,169,24.792,34.2734
1012,2008/11/6,0:33:00,29-49.8200N,138-01.4400E,169,24.779,34.28
1013,2008/11/6,0:34:00,29-49.5800N,138-01.4900E,170,24.77,34.2837
1014,2008/11/6,0:35:00,29-49.3400N,138-01.5400E,170,24.759,34.2819
1015,2008/11/6,0:36:00,29-49.1000N,138-01.5900E,170,24.756,34.2864
1016,2008/11/6,0:37:00,29-48.8600N,138-01.6400E,170,24.755,34.289
1017,2008/11/6,0:38:00,29-48.6200N,138-01.6900E,170,24.753,34.2907
1018,2008/11/6,0:39:00,29-48.3800N,138-01.7400E,169,24.752,34.2926
1019,2008/11/6,0:40:00,29-48.1500N,138-01.7900E,168,24.784,34.294
1020,2008/11/6,0:41:00,29-47.9100N,138-01.8500E,167,24.901,34.2915
1021,2008/11/6,0:42:00,29-47.6700N,138-01.9000E,169,24.938,34.2601
1022,2008/11/6,0:43:00,29-47.4400N,138-01.9500E,168,24.958,34.243
1023,2008/11/6,0:44:00,29-47.2100N,138-02.0100E,168,24.974,34.2372
1024,2008/11/6,0:45:00,29-46.9700N,138-02.0600E,169,24.989,34.2342
1025,2008/11/6,0:46:00,29-46.7300N,138-02.1100E,169,25.004,34.2316
1026,2008/11/6,0:47:00,29-46.5000N,138-02.1600E,168,25.02,34.2272
1027,2008/11/6,0:48:00,29-46.2700N,138-02.2200E,168,25.046,34.2218
1028,2008/11/6,0:49:00,29-46.0400N,138-02.2700E,168,25.082,34.2091
1029,2008/11/6,0:50:00,29-45.8000N,138-02.3200E,168,25.12,34.1961
1030,2008/11/6,0:51:00,29-45.5600N,138-02.3700E,170,25.145,34.1896
1031,2008/11/6,0:52:00,29-45.3200N,138-02.4100E,170,25.159,34.1838
1032,2008/11/6,0:53:00,29-45.0900N,138-02.4500E,170,25.159,34.1828
1033,2008/11/6,0:54:00,29-44.8500N,138-02.5000E,171,25.164,34.1847
1034,2008/11/6,0:55:00,29-44.6100N,138-02.5400E,172,25.191,34.1853
1035,2008/11/6,0:56:00,29-44.3700N,138-02.5800E,171,25.22,34.1902
1036,2008/11/6,0:57:00,29-44.1300N,138-02.6200E,171,25.221,34.2058
1037,2008/11/6,0:58:00,29-43.8900N,138-02.6600E,171,25.223,34.2144
1038,2008/11/6,0:59:00,29-43.6400N,138-02.7100E,170,25.205,34.2192
1039,2008/11/6,1:00:00,29-43.4000N,138-02.7500E,172,25.181,34.2179
1040,2008/11/6,1:01:00,29-43.1600N,138-02.7800E,172,25.174,34.2097
1041,2008/11/6,1:02:00,29-42.9200N,138-02.8300E,170,25.26,34.2082
1042,2008/11/6,1:03:00,29-42.6900N,138-02.8700E,169,25.372,34.2049
1043,2008/11/6,1:04:00,29-42.4600N,138-02.9200E,168,25.401,34.164
1044,2008/11/6,1:05:00,29-42.2200N,138-02.9700E,169,25.408,34.1301
1045,2008/11/6,1:06:00,29-41.9900N,138-03.0200E,169,25.423,34.1146
1046,2008/11/6,1:07:00,29-41.7500N,138-03.0700E,169,25.434,34.1053
1047,2008/11/6,1:08:00,29-41.5200N,138-03.1200E,169,25.439,34.0996
1048,2008/11/6,1:09:00,29-41.2800N,138-03.1700E,169,25.446,34.096
1049,2008/11/6,1:10:00,29-41.0500N,138-03.2200E,169,25.454,34.0897
1050,2008/11/6,1:11:00,29-40.8200N,138-03.2600E,170,25.455,34.0872
1051,2008/11/6,1:12:00,29-40.5800N,138-03.3100E,170,25.455,34.0878
1052,2008/11/6,1:13:00,29-40.3400N,138-03.3500E,170,25.453,34.0827
1053,2008/11/6,1:14:00,29-40.1100N,138-03.3900E,171,25.457,34.0832
1054,2008/11/6,1:15:00,29-39.8700N,138-03.4400E,170,25.462,34.0793
1055,2008/11/6,1:16:00,29-39.6300N,138-03.4800E,171,25.468,34.0822
1056,2008/11/6,1:17:00,29-39.4000N,138-03.5200E,171,25.472,34.0867
1057,2008/11/6,1:18:00,29-39.1600N,138-03.5600E,171,25.474,34.0878
1058,2008/11/6,1:19:00,29-38.9200N,138-03.6100E,171,25.474,34.0932
1059,2008/11/6,1:20:00,29-38.6900N,138-03.6500E,171,25.473,34.0953
1060,2008/11/6,1:21:00,29-38.4600N,138-03.6900E,171,25.467,34.097
1061,2008/11/6,1:22:00,29-38.2200N,138-03.7300E,171,25.469,34.1004
1062,2008/11/6,1:23:00,29-37.9800N,138-03.7700E,171,25.465,34.0997
1063,2008/11/6,1:24:00,29-37.7500N,138-03.8100E,171,25.464,34.0998
1064,2008/11/6,1:25:00,29-37.5100N,138-03.8500E,171,25.461,34.1014
1065,2008/11/6,1:26:00,29-37.2600N,138-03.8900E,172,25.465,34.1028
1066,2008/11/6,1:27:00,29-37.0200N,138-03.9300E,171,25.47,34.1015
1067,2008/11/6,1:28:00,29-36.7900N,138-03.9600E,171,25.472,34.1007
1068,2008/11/6,1:29:00,29-36.5600N,138-04.0000E,171,25.472,34.1017
1069,2008/11/6,1:30:00,29-36.3200N,138-04.0400E,171,25.462,34.103
1070,2008/11/6,1:31:00,29-36.0800N,138-04.0800E,171,25.459,34.1009
1071,2008/11/6,1:32:00,29-35.8500N,138-04.1200E,171,25.458,34.0937
1072,2008/11/6,1:33:00,29-35.6100N,138-04.1600E,171,25.447,34.0998
1073,2008/11/6,1:34:00,29-35.3700N,138-04.2000E,171,25.431,34.0974
1074,2008/11/6,1:35:00,29-35.1400N,138-04.2400E,172,25.451,34.095
1075,2008/11/6,1:36:00,29-34.9100N,138-04.2700E,171,25.468,34.09
1076,2008/11/6,1:37:00,29-34.6700N,138-04.3100E,172,25.472,34.1022
1077,2008/11/6,1:38:00,29-34.4300N,138-04.3500E,172,25.464,34.1068
1078,2008/11/6,1:39:00,29-34.2000N,138-04.3800E,172,25.457,34.107
1079,2008/11/6,1:40:00,29-33.9600N,138-04.4200E,172,25.452,34.1052
1080,2008/11/6,1:41:00,29-33.7200N,138-04.4600E,171,25.442,34.1012
1081,2008/11/6,1:42:00,29-33.4800N,138-04.5000E,171,25.431,34.1002
1082,2008/11/6,1:43:00,29-33.2400N,138-04.5400E,171,25.43,34.0978
1083,2008/11/6,1:44:00,29-33.0100N,138-04.5700E,172,25.416,34.093
1084,2008/11/6,1:45:00,29-32.7700N,138-04.6100E,172,25.419,34.0869
1085,2008/11/6,1:46:00,29-32.5400N,138-04.6400E,172,25.425,34.0856
1086,2008/11/6,1:47:00,29-32.3100N,138-04.6800E,171,25.435,34.0825
1087,2008/11/6,1:48:00,29-32.0800N,138-04.7200E,171,25.437,34.0836
1088,2008/11/6,1:49:00,29-31.8400N,138-04.7600E,171,25.438,34.0869
1089,2008/11/6,1:50:00,29-31.6100N,138-04.8000E,171,25.434,34.0902
1090,2008/11/6,1:51:00,29-31.3700N,138-04.8400E,171,25.423,34.0877
1091,2008/11/6,1:52:00,29-31.1400N,138-04.8700E,171,25.414,34.0857
1092,2008/11/6,1:53:00,29-30.8900N,138-04.9200E,171,25.41,34.0797
1093,2008/11/6,1:54:00,29-30.6600N,138-04.9600E,171,25.406,34.0762
1094,2008/11/6,1:55:00,29-30.4200N,138-04.9900E,171,25.398,34.0756
1095,2008/11/6,1:56:00,29-30.1900N,138-05.0300E,171,25.393,34.0732
1096,2008/11/6,1:57:00,29-29.9600N,138-05.0700E,171,25.391,34.0723
1097,2008/11/6,1:58:00,29-29.7300N,138-05.1200E,171,25.395,34.0711
1098,2008/11/6,1:59:00,29-29.5000N,138-05.1600E,171,25.406,34.0698
1099,2008/11/6,2:00:00,29-29.2600N,138-05.2000E,171,25.471,34.0742
1100,2008/11/6,2:01:00,29-29.0400N,138-05.2400E,170,25.532,34.0855
1101,2008/11/6,2:02:00,29-28.8100N,138-05.2800E,171,25.565,34.1068
1102,2008/11/6,2:03:00,29-28.5800N,138-05.3200E,170,25.545,34.1367
1103,2008/11/6,2:04:00,29-28.3500N,138-05.3700E,170,25.495,34.1515
1104,2008/11/6,2:05:00,29-28.1200N,138-05.4100E,170,25.472,34.1427
1105,2008/11/6,2:06:00,29-27.8900N,138-05.4500E,171,25.467,34.1297
1106,2008/11/6,2:07:00,29-27.6600N,138-05.4900E,170,25.443,34.1242
1107,2008/11/6,2:08:00,29-27.4300N,138-05.5400E,170,25.437,34.1186
1108,2008/11/6,2:09:00,29-27.2000N,138-05.5800E,170,25.442,34.1135
1109,2008/11/6,2:10:00,29-26.9700N,138-05.6300E,170,25.436,34.0814
1110,2008/11/6,2:11:00,29-26.7400N,138-05.6800E,170,25.425,34.1194
1111,2008/11/6,2:12:00,29-26.5100N,138-05.7200E,169,25.421,34.1212
1112,2008/11/6,2:13:00,29-26.2800N,138-05.7700E,169,25.419,34.1241
1113,2008/11/6,2:14:00,29-26.0500N,138-05.8200E,169,25.422,34.1232
1114,2008/11/6,2:15:00,29-25.8200N,138-05.8700E,169,25.424,34.1021
1115,2008/11/6,2:16:00,29-25.5900N,138-05.9200E,169,25.423,34.1293
1116,2008/11/6,2:17:00,29-25.3600N,138-05.9700E,169,25.428,34.1318
1117,2008/11/6,2:18:00,29-25.1400N,138-06.0100E,169,25.438,34.1237
1118,2008/11/6,2:19:00,29-24.8900N,138-06.0600E,170,25.437,34.1308
1119,2008/11/6,2:20:00,29-24.6600N,138-06.1100E,169,25.424,34.1342
1120,2008/11/6,2:21:00,29-24.4300N,138-06.1600E,170,25.425,34.1186
1121,2008/11/6,2:22:00,29-24.2000N,138-06.2000E,170,25.444,34.1306
1122,2008/11/6,2:23:00,29-23.9800N,138-06.2500E,169,25.443,34.1396
1123,2008/11/6,2:24:00,29-23.7500N,138-06.3000E,169,25.443,34.1431
1124,2008/11/6,2:25:00,29-23.5200N,138-06.3500E,169,25.445,34.143
1125,2008/11/6,2:26:00,29-23.2900N,138-06.4000E,169,25.442,34.1421
1126,2008/11/6,2:27:00,29-23.0700N,138-06.4500E,169,25.446,34.1136
1127,2008/11/6,2:28:00,29-22.8400N,138-06.4900E,169,25.456,34.1397
1129,2008/11/6,2:30:00,29-22.3900N,138-06.5900E,169,25.476,34.1477
1130,2008/11/6,2:31:00,29-22.1700N,138-06.6300E,170,25.475,34.1515
1131,2008/11/6,2:32:00,29-21.9300N,138-06.6800E,170,25.468,34.1553
1132,2008/11/6,2:33:00,29-21.7100N,138-06.7300E,169,25.442,34.1588
1133,2008/11/6,2:34:00,29-21.4800N,138-06.7700E,169,25.419,34.121
1134,2008/11/6,2:35:00,29-21.2600N,138-06.8200E,169,25.409,34.1452
1135,2008/11/6,2:36:00,29-21.0300N,138-06.8600E,170,25.409,34.1369
1136,2008/11/6,2:37:00,29-20.8000N,138-06.9100E,170,25.414,34.1355
1137,2008/11/6,2:38:00,29-20.5800N,138-06.9600E,169,25.418,34.1337
1138,2008/11/6,2:39:00,29-20.3500N,138-07.0000E,170,25.431,34.1405
1139,2008/11/6,2:40:00,29-20.1300N,138-07.0500E,170,25.438,34.1464
1140,2008/11/6,2:41:00,29-19.9000N,138-07.0900E,170,25.439,34.1499
1141,2008/11/6,2:42:00,29-19.6800N,138-07.1300E,170,25.441,34.1486
1142,2008/11/6,2:43:00,29-19.4500N,138-07.1800E,171,25.443,34.1459
1144,2008/11/6,2:45:00,29-19.0000N,138-07.2600E,171,25.447,34.1514
1145,2008/11/6,2:46:00,29-18.7500N,138-07.3000E,171,25.445,34.1499
1146,2008/11/6,2:47:00,29-18.5200N,138-07.3400E,171,25.443,34.1488
1147,2008/11/6,2:48:00,29-18.3000N,138-07.3800E,171,25.447,34.1536
1148,2008/11/6,2:49:00,29-18.0800N,138-07.4200E,171,25.448,34.1527
1149,2008/11/6,2:50:00,29-17.8500N,138-07.4600E,170,25.453,34.1523
1150,2008/11/6,2:51:00,29-17.6300N,138-07.5000E,170,25.455,34.1486
1151,2008/11/6,2:52:00,29-17.4000N,138-07.5400E,170,25.449,34.1498
1152,2008/11/6,2:53:00,29-17.1800N,138-07.5800E,171,25.453,34.1494
1153,2008/11/6,2:54:00,29-16.9600N,138-07.6200E,171,25.451,34.1481
1154,2008/11/6,2:55:00,29-16.7300N,138-07.6600E,171,25.445,34.138
1155,2008/11/6,2:56:00,29-16.5100N,138-07.7000E,170,25.439,34.1431
1156,2008/11/6,2:57:00,29-16.2900N,138-07.7400E,171,25.439,34.1327
1157,2008/11/6,2:58:00,29-16.0600N,138-07.7800E,170,25.441,34.1343
1158,2008/11/6,2:59:00,29-15.8400N,138-07.8200E,170,25.44,34.0931
1160,2008/11/6,3:01:00,29-15.3900N,138-07.9000E,171,25.486,34.1459
1161,2008/11/6,3:02:00,29-15.1700N,138-07.9400E,171,25.48,34.1429
1162,2008/11/6,3:03:00,29-14.9400N,138-07.9800E,170,25.48,34.1498
1163,2008/11/6,3:04:00,29-14.7200N,138-08.0200E,171,25.491,34.1549
1164,2008/11/6,3:05:00,29-14.4900N,138-08.0600E,171,25.509,34.1576
1165,2008/11/6,3:06:00,29-14.2700N,138-08.1000E,171,25.53,34.1626
1166,2008/11/6,3:07:00,29-14.0500N,138-08.1400E,170,25.539,34.1751
1167,2008/11/6,3:08:00,29-13.8200N,138-08.1800E,171,25.546,34.1863
1168,2008/11/6,3:09:00,29-13.6000N,138-08.2200E,171,25.547,34.1943
1169,2008/11/6,3:10:00,29-13.3800N,138-08.2600E,171,25.55,34.1994
1170,2008/11/6,3:11:00,29-13.1500N,138-08.3000E,170,25.61,34.2
1171,2008/11/6,3:12:00,29-12.9300N,138-08.3500E,169,25.618,34.2114
1172,2008/11/6,3:13:00,29-12.6900N,138-08.3900E,170,25.634,34.2462
1173,2008/11/6,3:14:00,29-12.4700N,138-08.4400E,169,25.64,34.2573
1174,2008/11/6,3:15:00,29-12.2500N,138-08.4800E,169,25.64,34.2634
1175,2008/11/6,3:16:00,29-12.0300N,138-08.5300E,170,25.631,34.2653
1176,2008/11/6,3:17:00,29-11.8100N,138-08.5700E,169,25.637,34.2633
1177,2008/11/6,3:18:00,29-11.5800N,138-08.6200E,169,25.644,34.2644
1178,2008/11/6,3:19:00,29-11.3600N,138-08.6600E,169,25.652,34.2637
1179,2008/11/6,3:20:00,29-11.1400N,138-08.7100E,169,25.655,34.2695
1180,2008/11/6,3:21:00,29-10.9200N,138-08.7600E,169,25.659,34.2721
1181,2008/11/6,3:22:00,29-10.7000N,138-08.8100E,168,25.646,34.2766
1182,2008/11/6,3:23:00,29-10.4700N,138-08.8700E,168,25.622,34.2846
1183,2008/11/6,3:24:00,29-10.2500N,138-08.9200E,169,25.606,34.2749
1184,2008/11/6,3:25:00,29-10.0200N,138-08.9700E,168,25.594,34.2617
1185,2008/11/6,3:26:00,29-09.8000N,138-09.0100E,168,25.58,34.2517
1186,2008/11/6,3:27:00,29-09.5700N,138-09.0600E,168,25.573,34.2452
1187,2008/11/6,3:28:00,29-09.3500N,138-09.1100E,168,25.568,34.239
1188,2008/11/6,3:29:00,29-09.1300N,138-09.1600E,168,25.563,34.234
1189,2008/11/6,3:30:00,29-08.9000N,138-09.2100E,168,25.56,34.2287
1190,2008/11/6,3:31:00,29-08.6700N,138-09.2600E,168,25.564,34.2261
1191,2008/11/6,3:32:00,29-08.4500N,138-09.3200E,168,25.564,34.2247
1192,2008/11/6,3:33:00,29-08.2200N,138-09.3700E,168,25.571,34.2247
1193,2008/11/6,3:34:00,29-07.9900N,138-09.4200E,168,25.566,34.2267
1194,2008/11/6,3:35:00,29-07.7700N,138-09.4700E,168,25.563,34.2287
1195,2008/11/6,3:36:00,29-07.5500N,138-09.5200E,168,25.555,34.2263
1196,2008/11/6,3:37:00,29-07.3100N,138-09.5700E,169,25.546,34.2236
1197,2008/11/6,3:38:00,29-07.0900N,138-09.6200E,168,25.547,34.2203
1198,2008/11/6,3:39:00,29-06.8600N,138-09.6700E,169,25.55,34.214
1199,2008/11/6,3:40:00,29-06.6100N,138-09.7300E,168,25.56,34.2138
1200,2008/11/6,3:41:00,29-06.3900N,138-09.7800E,168,25.574,34.2109
1201,2008/11/6,3:42:00,29-06.1600N,138-09.8300E,168,25.596,34.2154
1202,2008/11/6,3:43:00,29-05.9300N,138-09.8800E,168,25.632,34.2202
1203,2008/11/6,3:44:00,29-05.7000N,138-09.9300E,168,25.658,34.2322
1204,2008/11/6,3:45:00,29-05.4700N,138-09.9800E,169,25.676,34.2487
1205,2008/11/6,3:46:00,29-05.2500N,138-10.0300E,169,25.683,34.2625
1206,2008/11/6,3:47:00,29-05.0100N,138-10.0800E,169,25.675,34.2732
1207,2008/11/6,3:48:00,29-04.7900N,138-10.1300E,169,25.673,34.2731
1208,2008/11/6,3:49:00,29-04.5600N,138-10.1800E,168,25.674,34.268
1209,2008/11/6,3:50:00,29-04.3300N,138-10.2300E,169,25.663,34.2642
1210,2008/11/6,3:51:00,29-04.1100N,138-10.2800E,170,25.662,34.2601